Terug naar catalogus

OPS 4682 DEB

ActiefPO
NORAD 38415·DEBRIS·🇺🇸 United States

Gelanceerd Apr 3, 1965 vanaf Vandenberg Space Force Base

Loading…

Volgende Passages (komende 24 uur)

TLE

VersSource: Space-Track

Epoch: Sep 13, 2026, 14:32 UTC

1 38415U 65027DU  26256.60595940 -.00000116  00000-0 -39452-3 0  9996
2 38415  90.2529  16.5644 0029360 233.3262 126.5163 13.02440740626448

Volg OPS 4682 DEB in realtime met AllMySat

Download on the App Store